Location: Anciles
(42.5833°N, 0.5167°E)
Time: 04:27:24
(UTC+00:00)

FALCON 9 DEB - Pass Details

Date: 10 December 2019
Orbit: 431 x 442 km, 53.0° (Epoch: 17 January)

Event Time Altitude Azimuth Distance (km) Brightness Sun altitude
Rises 18:21:05 0° 251° (WSW) 2,422 8.5 -20.7°
Reaches altitude 10° 18:23:16 10° 258° (WSW) 1,554 7.1 -21.1°
Maximum altitude 18:26:36 41° 331° (NNW) 652 4.1 -21.7°
Enters shadow 18:26:40 41° 334° (NNW) 652 4.0 -21.7°
